| time (UTC) | temp F | wind direction | speed MPH | gust MPH | rain 1hr in | rain 24hr in | rain mn in | humidity % | barometer mb |
| 20260505153030 | 64 | 332 | 3.0 | 6.0 | 0.00 | 0.05 | 0.02 | 72 | 995.9 |
| 20260505152028 | 63 | 331 | 3.0 | 4.0 | 0.00 | 0.05 | 0.02 | 73 | 996.1 |
| 20260505151025 | 63 | 356 | 4.0 | 8.0 | 0.00 | 0.05 | 0.02 | 72 | 996.0 |
| 20260505140107 | 66 | 5 | 3.0 | 7.0 | 0.00 | 0.05 | 0.02 | 67 | 996.4 |
| 20260505124046 | 67 | 330 | 4.0 | 8.0 | 0.00 | 0.05 | 0.02 | 64 | 996.8 |
| 20260505123043 | 66 | 331 | 4.0 | 9.0 | 0.00 | 0.05 | 0.02 | 65 | 997.0 |
| 20260505122040 | 65 | 349 | 4.0 | 8.0 | 0.00 | 0.05 | 0.02 | 66 | 997.0 |
| 20260505121038 | 66 | 328 | 5.0 | 8.0 | 0.00 | 0.05 | 0.02 | 65 | 996.9 |
| 20260505120035 | 65 | 339 | 3.0 | 8.0 | 0.00 | 0.05 | 0.02 | 65 | 997.0 |
| 20260505115033 | 65 | 346 | 3.0 | 9.0 | 0.00 | 0.05 | 0.02 | 67 | 997.1 |
| 20260505114030 | 66 | 347 | 2.0 | 4.0 | 0.00 | 0.05 | 0.02 | 67 | 997.2 |
| 20260505113027 | 65 | 349 | 3.0 | 7.0 | 0.00 | 0.05 | 0.02 | 68 | 997.0 |
| 20260505112025 | 65 | 27 | 3.0 | 7.0 | 0.00 | 0.05 | 0.02 | 66 | 997.2 |
| 20260505111022 | 65 | 35 | 4.0 | 8.0 | 0.00 | 0.05 | 0.02 | 64 | 997.2 |
| 20260505102109 | 63 | 349 | 3.0 | 4.0 | 0.00 | 0.05 | 0.02 | 78 | 997.4 |
| 20260505101106 | 62 | 333 | 2.0 | 4.0 | 0.00 | 0.05 | 0.02 | 78 | 997.5 |
| 20260505095101 | 62 | 333 | 2.0 | 6.0 | 0.00 | 0.05 | 0.02 | 79 | 997.7 |
| 20260505094058 | 62 | 349 | 2.0 | 4.0 | 0.00 | 0.05 | 0.02 | 79 | 997.6 |
| 20260505093055 | 62 | 0 | 1.0 | 2.0 | 0.00 | 0.05 | 0.02 | 79 | 997.6 |
| 20260505092053 | 62 | 334 | 3.0 | 6.0 | 0.00 | 0.05 | 0.02 | 78 | 997.7 |
| 20260505091050 | 62 | 321 | 2.0 | 4.0 | 0.00 | 0.05 | 0.02 | 78 | 997.8 |
| 20260505090047 | 62 | 330 | 3.0 | 4.0 | 0.00 | 0.05 | 0.02 | 78 | 997.8 |
| 20260505085045 | 62 | 342 | 2.0 | 4.0 | 0.00 | 0.05 | 0.02 | 76 | 997.8 |
| 20260505084042 | 62 | 322 | 2.0 | 4.0 | 0.00 | 0.05 | 0.02 | 77 | 997.9 |
| 20260505083039 | 62 | 271 | 1.0 | 2.0 | 0.00 | 0.05 | 0.02 | 77 | 998.0 |
| 20260505082037 | 62 | 29 | 1.0 | 2.0 | 0.00 | 0.05 | 0.02 | 78 | 998.0 |
| 20260505081034 | 60 | 304 | 1.0 | 4.0 | 0.00 | 0.05 | 0.02 | 82 | 997.9 |
| 20260505080031 | 60 | 308 | 2.0 | 4.0 | 0.00 | 0.05 | 0.02 | 84 | 997.8 |
| 20260505075029 | 59 | 340 | 1.0 | 4.0 | 0.00 | 0.05 | 0.02 | 86 | 998.0 |
| 20260505074026 | 59 | 26 | 1.0 | 2.0 | 0.00 | 0.05 | 0.02 | 86 | 998.0 |
| 20260505073024 | 58 | 326 | 2.0 | 4.0 | 0.01 | 0.05 | 0.02 | 86 | 998.0 |
| 20260505072021 | 58 | 335 | 1.0 | 4.0 | 0.01 | 0.05 | 0.02 | 85 | 998.2 |
| 20260505071019 | 58 | 306 | 1.0 | 2.0 | 0.01 | 0.05 | 0.02 | 83 | 998.4 |
| 20260505070016 | 59 | 0.0 | 0.0 | 0.01 | 0.05 | 0.02 | 84 | 998.4 | |
| 20260505065113 | 59 | 0.0 | 0.0 | 0.01 | 0.05 | 0.02 | 84 | 998.2 | |
| 20260505064110 | 58 | 0.0 | 0.0 | 0.01 | 0.05 | 0.02 | 85 | 998.3 | |
| 20260505063107 | 58 | 218 | 1.0 | 2.0 | 0.00 | 0.04 | 0.01 | 86 | 998.3 |
| 20260505062105 | 58 | 325 | 2.0 | 4.0 | 0.00 | 0.04 | 0.01 | 86 | 998.2 |
| 20260505061102 | 58 | 351 | 0.0 | 2.0 | 0.00 | 0.04 | 0.01 | 85 | 998.1 |
| 20260505060100 | 58 | 338 | 1.0 | 2.0 | 0.00 | 0.04 | 0.01 | 84 | 998.1 |
| 20260505055057 | 58 | 0.0 | 0.0 | 0.00 | 0.04 | 0.01 | 84 | 998.3 | |
| 20260505054054 | 58 | 0.0 | 0.0 | 0.00 | 0.04 | 0.01 | 84 | 998.2 | |
| 20260505053052 | 58 | 317 | 1.0 | 4.0 | 0.00 | 0.04 | 0.01 | 84 | 998.1 |
| 20260505052049 | 58 | 319 | 1.0 | 2.0 | 0.00 | 0.04 | 0.01 | 85 | 997.9 |
| 20260505051046 | 57 | 45 | 0.0 | 2.0 | 0.00 | 0.04 | 0.01 | 87 | 997.8 |
| 20260505041019 | 57 | 135 | 0.0 | 2.0 | 0.00 | 0.04 | 0.01 | 90 | 998.0 |
| 20260505040016 | 57 | 0.0 | 0.0 | 0.00 | 0.04 | 0.01 | 90 | 998.1 | |
| 20260505035108 | 57 | 0.0 | 0.0 | 0.00 | 0.04 | 0.01 | 90 | 998.0 | |
| 20260505034105 | 57 | 0.0 | 0.0 | 0.00 | 0.04 | 0.01 | 90 | 998.0 | |
| 20260505033102 | 57 | 0.0 | 0.0 | 0.00 | 0.04 | 0.01 | 90 | 998.2 | |
| 20260505032055 | 57 | 0.0 | 0.0 | 0.00 | 0.04 | 0.01 | 90 | 998.3 | |
| 20260505031052 | 57 | 0.0 | 0.0 | 0.00 | 0.04 | 0.01 | 90 | 998.2 | |
| 20260505030043 | 57 | 0.0 | 0.0 | 0.00 | 0.04 | 0.01 | 89 | 998.4 | |
| 20260505025041 | 56 | 0.0 | 0.0 | 0.00 | 0.04 | 0.01 | 89 | 998.5 | |
| 20260505024038 | 56 | 0.0 | 0.0 | 0.00 | 0.04 | 0.01 | 89 | 998.8 | |
| 20260505023030 | 56 | 0.0 | 0.0 | 0.00 | 0.04 | 0.01 | 89 | 998.7 | |
| 20260505022027 | 56 | 0.0 | 0.0 | 0.00 | 0.04 | 0.01 | 89 | 998.8 | |
| 20260505021019 | 56 | 0.0 | 0.0 | 0.00 | 0.04 | 0.01 | 88 | 998.9 | |
| 20260505020016 | 56 | 0.0 | 0.0 | 0.00 | 0.04 | 0.01 | 88 | 999.0 | |
| 20260505015107 | 56 | 0.0 | 0.0 | 0.00 | 0.04 | 0.01 | 89 | 998.9 | |
| 20260505014105 | 56 | 0.0 | 0.0 | 0.00 | 0.04 | 0.01 | 89 | 999.0 | |
| 20260505013102 | 56 | 0.0 | 0.0 | 0.00 | 0.04 | 0.01 | 89 | 999.1 | |
| 20260505012054 | 56 | 0.0 | 0.0 | 0.00 | 0.04 | 0.01 | 88 | 999.3 | |
| 20260505011051 | 56 | 0.0 | 0.0 | 0.00 | 0.04 | 0.01 | 88 | 999.3 | |
| 20260505010042 | 57 | 135 | 1.0 | 2.0 | 0.00 | 0.04 | 0.01 | 87 | 999.4 |
| 20260505005040 | 57 | 0.0 | 0.0 | 0.00 | 0.04 | 0.01 | 87 | 999.4 | |
| 20260505004032 | 58 | 0.0 | 0.0 | 0.00 | 0.04 | 0.01 | 87 | 999.5 | |
| 20260505003029 | 58 | 0.0 | 0.0 | 0.00 | 0.04 | 0.01 | 86 | 999.6 | |
| 20260505002027 | 58 | 338 | 0.0 | 2.0 | 0.00 | 0.04 | 0.01 | 86 | 999.7 |
| 20260505001018 | 58 | 315 | 0.0 | 2.0 | 0.00 | 0.04 | 0.01 | 88 | 999.8 |
| 20260505000016 | 58 | 0.0 | 0.0 | 0.00 | 0.04 | 0.01 | 88 | 999.9 | |
| 20260504235108 | 57 | 0.0 | 0.0 | 0.00 | 0.04 | 0.01 | 88 | 999.9 | |
| 20260504234105 | 57 | 0.0 | 0.0 | 0.00 | 0.04 | 0.01 | 88 | 999.8 | |
| 20260504233102 | 57 | 0.0 | 0.0 | 0.00 | 0.04 | 0.01 | 87 | 1000.0 | |
| 20260504232054 | 58 | 0.0 | 0.0 | 0.00 | 0.04 | 0.01 | 87 | 999.8 | |
| 20260504231051 | 58 | 0.0 | 0.0 | 0.01 | 0.04 | 0.01 | 86 | 1000.0 | |
| 20260504230043 | 58 | 158 | 0.0 | 2.0 | 0.01 | 0.04 | 0.01 | 85 | 999.9 |
| 20260504225040 | 59 | 0.0 | 0.0 | 0.01 | 0.04 | 0.01 | 84 | 999.9 | |
| 20260504224032 | 59 | 0.0 | 0.0 | 0.01 | 0.04 | 0.01 | 84 | 1000.0 | |
| 20260504223029 | 59 | 23 | 0.0 | 2.0 | 0.01 | 0.04 | 0.01 | 83 | 999.9 |
| 20260504222026 | 59 | 25 | 2.0 | 4.0 | 0.01 | 0.04 | 0.01 | 81 | 999.9 |
| 20260504221017 | 59 | 38 | 2.0 | 4.0 | 0.00 | 0.02 | 0.00 | 82 | 1000.3 |
| 20260504220015 | 58 | 0.0 | 0.0 | 0.00 | 0.02 | 0.00 | 83 | 1000.6 | |
| 20260504215106 | 58 | 0.0 | 0.0 | 0.02 | 0.02 | 0.02 | 83 | 1000.4 | |
| 20260504214104 | 57 | 0.0 | 0.0 | 0.02 | 0.02 | 0.02 | 83 | 1000.3 | |
| 20260504213056 | 58 | 149 | 2.0 | 4.0 | 0.02 | 0.02 | 0.02 | 82 | 1000.5 |
| 20260504212053 | 59 | 294 | 0.0 | 2.0 | 0.02 | 0.02 | 0.02 | 81 | 1000.5 |
| 20260504211051 | 59 | 45 | 0.0 | 2.0 | 0.02 | 0.02 | 0.02 | 77 | 1000.3 |
| 20260504210042 | 60 | 0.0 | 0.0 | 0.02 | 0.02 | 0.02 | 72 | 1000.6 | |
| 20260504205040 | 61 | 0.0 | 0.0 | 0.00 | 0.00 | 0.00 | 69 | 1000.6 | |
| 20260504204032 | 61 | 0.0 | 0.0 | 0.00 | 0.00 | 0.00 | 70 | 1000.3 | |
| 20260504203030 | 60 | 225 | 0.0 | 2.0 | 0.00 | 0.00 | 0.00 | 70 | 1000.5 |
| 20260504202027 | 61 | 203 | 1.0 | 2.0 | 0.00 | 0.00 | 0.00 | 69 | 1000.5 |
| 20260504201018 | 62 | 0.0 | 0.0 | 0.00 | 0.00 | 0.00 | 66 | 1000.4 | |
| 20260504200016 | 62 | 0.0 | 0.0 | 0.00 | 0.00 | 0.00 | 66 | 1000.4 | |
| 20260504195108 | 62 | 0.0 | 0.0 | 0.00 | 0.00 | 0.00 | 66 | 1000.4 | |
| 20260504194105 | 62 | 158 | 0.0 | 2.0 | 0.00 | 0.00 | 0.00 | 66 | 1000.4 |
| 20260504193102 | 62 | 158 | 1.0 | 2.0 | 0.00 | 0.00 | 0.00 | 65 | 1000.6 |
| 20260504192055 | 63 | 225 | 0.0 | 2.0 | 0.00 | 0.00 | 0.00 | 64 | 1000.3 |
| 20260504191052 | 64 | 0.0 | 0.0 | 0.00 | 0.00 | 0.00 | 63 | 1000.4 | |
| 20260504190044 | 65 | 0.0 | 0.0 | 0.00 | 0.00 | 0.00 | 61 | 1000.5 | |
| 20260504185041 | 66 | 0.0 | 0.0 | 0.00 | 0.00 | 0.00 | 59 | 1000.4 | |
| 20260504184038 | 67 | 315 | 0.0 | 2.0 | 0.00 | 0.00 | 0.00 | 57 | 1000.4 |
| 20260504183031 | 68 | 313 | 1.0 | 2.0 | 0.00 | 0.00 | 0.00 | 56 | 1000.3 |
| 20260504182028 | 69 | 332 | 2.0 | 4.0 | 0.00 | 0.00 | 0.00 | 55 | 1000.3 |
| 20260504181020 | 70 | 322 | 1.0 | 4.0 | 0.00 | 0.00 | 0.00 | 54 | 1000.3 |
| 20260504180017 | 70 | 336 | 2.0 | 4.0 | 0.00 | 0.00 | 0.00 | 54 | 1000.1 |
| 20260504175114 | 71 | 323 | 2.0 | 6.0 | 0.00 | 0.00 | 0.00 | 53 | 1000.2 |
| 20260504174107 | 72 | 310 | 2.0 | 4.0 | 0.00 | 0.00 | 0.00 | 50 | 1000.1 |
| 20260504173104 | 72 | 320 | 3.0 | 7.0 | 0.00 | 0.00 | 0.00 | 48 | 1000.1 |
| 20260504172056 | 72 | 304 | 4.0 | 7.0 | 0.00 | 0.00 | 0.00 | 48 | 1000.0 |
| 20260504171053 | 72 | 311 | 2.0 | 4.0 | 0.00 | 0.00 | 0.00 | 48 | 1000.1 |